Hauptseite
METAR-TAF:

METAR-TAF

Flughäfen :

Dschidda, Saudi-Arabien

Internationaler König-Abd-al-Aziz-Flughafen

Breite: 21-42N, Länge: 039-11E, Höhe: 15 m

Beobachtung

Neuester Wetterbericht von vor 10 Minuten, um 12:00 UTC
Wind 12 kt aus West
Temperatur 35°C
Luftfeuchtigkeit 53%
Luftdruck 1002 hPa
Sichtweite 10 km oder mehr
keine Wolken unter 1500 m und keine Kumulonimbus oder Gewitterwolken

METAR: OEJN 221200Z 26012KT CAVOK 35/24 Q1002 NOSIG

Zeit: 15:10 (12:10 UTC)

Prognose

Neuester Wetterbericht von vor 1 Stunde und 10 Minuten, um 11:00 UTC
Gültige Prognose vom 22 um 12 UTC bis 23 um 18 UTC
Wind 8 kt aus Nord/Nordwest, Böen bis zu 18 kt
Sichtweite: 7000 m
Leicht bewölkt in der Höhe von 4000 ft
Übergehend zu
vom 22 um 20 UTC bis 22 um 22 UTC
Wind 6 kt aus Nord/Nordost

TAF: OEJN 221100Z 2212/2318 33008G18KT 7000 FEW040 BECMG 2220/2222 02006KT

Wetterbeobachtungen und Prognosen von mehr als 4000 Flughäfen (METAR und TAF Bericht).

Die verfügbaren Stationen werden durch gelbe und rote Markierungen auf der Karte dargestellt.

Führen Sie die Maus auf sie, um den Namen der Station zu sehen.

Darauf klicken, um die Beobachtung von Wetterbeobachtungen und Prognosen zu sehen.

Um die Karte zu ändern : klicken Sie auf den grünen Tasten mit einem schwarzen Kreuz Zum Vergrößern, auf den grünen Button mit einem Gedankenstrich zu verkleinern, oder auf die grünen Pfeile für benachbarte Karten.


METAR-TAF: